Year,Month,Day,Hour,Minute,Value (Times are PST for temperature in C)
2012,08,03,00,00,16.00
2012,08,03,00,01,15.90
2012,08,03,00,02,15.90
2012,08,03,00,03,15.80
2012,08,03,00,04,15.80
2012,08,03,00,05,15.80
2012,08,03,00,06,15.80
2012,08,03,00,07,15.80
2012,08,03,00,08,15.70
2012,08,03,00,09,15.70
2012,08,03,00,10,15.70
2012,08,03,00,11,15.70
2012,08,03,00,12,15.60
2012,08,03,00,13,15.60
2012,08,03,00,14,15.60
2012,08,03,00,15,15.60
2012,08,03,00,16,15.60
2012,08,03,00,17,15.60
2012,08,03,00,18,15.50
2012,08,03,00,19,15.50
2012,08,03,00,20,15.50
2012,08,03,00,21,15.40
2012,08,03,00,22,15.40
2012,08,03,00,23,15.40
2012,08,03,00,24,15.40
2012,08,03,00,25,15.40
2012,08,03,00,26,15.40
2012,08,03,00,27,15.40
2012,08,03,00,28,15.40
2012,08,03,00,29,15.40
2012,08,03,00,30,15.40
2012,08,03,00,31,15.30
2012,08,03,00,32,15.30
2012,08,03,00,33,15.30
2012,08,03,00,34,15.30
2012,08,03,00,35,15.30
2012,08,03,00,36,15.30
2012,08,03,00,37,15.30
2012,08,03,00,38,15.30
2012,08,03,00,39,15.30
2012,08,03,00,40,15.20
2012,08,03,00,41,15.20
2012,08,03,00,42,15.10
2012,08,03,00,43,15.10
2012,08,03,00,44,15.00
2012,08,03,00,45,15.00
2012,08,03,00,46,15.00
2012,08,03,00,47,15.00
2012,08,03,00,48,15.00
2012,08,03,00,49,15.00
2012,08,03,00,50,15.00
2012,08,03,00,51,15.00
2012,08,03,00,52,15.00
2012,08,03,00,53,15.00
2012,08,03,00,54,15.00
2012,08,03,00,55,15.00
2012,08,03,00,56,15.00
2012,08,03,00,57,15.00
2012,08,03,00,58,15.10
2012,08,03,00,59,15.10
2012,08,03,01,00,15.20
2012,08,03,01,01,15.20
2012,08,03,01,02,15.20
2012,08,03,01,03,15.20
2012,08,03,01,04,15.20
2012,08,03,01,05,15.10
2012,08,03,01,06,15.10
2012,08,03,01,07,15.10
2012,08,03,01,08,15.10
2012,08,03,01,09,15.10
2012,08,03,01,10,15.10
2012,08,03,01,11,15.10
2012,08,03,01,12,15.10
2012,08,03,01,13,15.10
2012,08,03,01,14,15.20
2012,08,03,01,15,15.20
2012,08,03,01,16,15.20
2012,08,03,01,17,15.30
2012,08,03,01,18,15.30
2012,08,03,01,19,15.30
2012,08,03,01,20,15.30
2012,08,03,01,21,15.30
2012,08,03,01,22,15.30
2012,08,03,01,23,15.20
2012,08,03,01,24,15.20
2012,08,03,01,25,15.10
2012,08,03,01,26,15.10
2012,08,03,01,27,15.20
2012,08,03,01,28,15.30
2012,08,03,01,29,15.30
2012,08,03,01,30,15.30
2012,08,03,01,31,15.30
2012,08,03,01,32,15.30
2012,08,03,01,33,15.30
2012,08,03,01,34,15.20
2012,08,03,01,35,15.10
2012,08,03,01,36,15.00
2012,08,03,01,37,15.00
2012,08,03,01,38,15.00
2012,08,03,01,39,15.00
2012,08,03,01,40,15.00
2012,08,03,01,41,15.00
2012,08,03,01,42,15.00
2012,08,03,01,43,15.00
2012,08,03,01,44,15.00
2012,08,03,01,45,15.10
2012,08,03,01,46,15.10
2012,08,03,01,47,15.00
2012,08,03,01,48,15.00
2012,08,03,01,49,15.00
2012,08,03,01,50,15.00
2012,08,03,01,51,15.00
2012,08,03,01,52,15.00
2012,08,03,01,53,15.00
2012,08,03,01,54,14.90
2012,08,03,01,55,14.80
2012,08,03,01,56,14.80
2012,08,03,01,57,14.80
2012,08,03,01,58,14.70
2012,08,03,01,59,14.70
2012,08,03,02,00,14.70
2012,08,03,02,01,14.60
2012,08,03,02,02,14.60
2012,08,03,02,03,14.60
2012,08,03,02,04,14.60
2012,08,03,02,05,14.60
2012,08,03,02,06,14.70
2012,08,03,02,07,14.80
2012,08,03,02,08,14.90
2012,08,03,02,09,15.00
2012,08,03,02,10,15.00
2012,08,03,02,11,15.20
2012,08,03,02,12,15.20
2012,08,03,02,13,15.30
2012,08,03,02,14,15.40
2012,08,03,02,15,15.40
2012,08,03,02,16,15.40
2012,08,03,02,17,15.40
2012,08,03,02,18,15.30
2012,08,03,02,19,15.20
2012,08,03,02,20,15.10
2012,08,03,02,21,15.00
2012,08,03,02,22,15.00
2012,08,03,02,23,15.00
2012,08,03,02,24,15.00
2012,08,03,02,25,15.00
2012,08,03,02,26,15.10
2012,08,03,02,27,15.10
2012,08,03,02,28,15.20
2012,08,03,02,29,15.20
2012,08,03,02,30,15.20
2012,08,03,02,31,15.30
2012,08,03,02,32,15.30
2012,08,03,02,33,15.30
2012,08,03,02,34,15.40
2012,08,03,02,35,15.40
2012,08,03,02,36,15.40
2012,08,03,02,37,15.50
2012,08,03,02,38,15.50
2012,08,03,02,39,15.60
2012,08,03,02,40,15.60
2012,08,03,02,41,15.70
2012,08,03,02,42,15.70
2012,08,03,02,43,15.70
2012,08,03,02,44,15.70
2012,08,03,02,45,15.70
2012,08,03,02,46,15.60
2012,08,03,02,47,15.60
2012,08,03,02,48,15.60
2012,08,03,02,49,15.50
2012,08,03,02,50,15.50
2012,08,03,02,51,15.40
2012,08,03,02,52,15.30
2012,08,03,02,53,15.30
2012,08,03,02,54,15.20
2012,08,03,02,55,15.20
2012,08,03,02,56,15.10
2012,08,03,02,57,15.10
2012,08,03,02,58,15.10
2012,08,03,02,59,15.10
2012,08,03,03,00,15.10
2012,08,03,03,01,15.10
2012,08,03,03,02,15.10
2012,08,03,03,03,15.10
2012,08,03,03,04,15.20
2012,08,03,03,05,15.20
2012,08,03,03,06,15.10
2012,08,03,03,07,15.10
2012,08,03,03,08,15.00
2012,08,03,03,09,15.00
2012,08,03,03,10,14.90
2012,08,03,03,11,14.80
2012,08,03,03,12,14.70
2012,08,03,03,13,14.70
2012,08,03,03,14,14.70
2012,08,03,03,15,14.60
2012,08,03,03,16,14.60
2012,08,03,03,17,14.60
2012,08,03,03,18,14.60
2012,08,03,03,19,14.60
2012,08,03,03,20,14.60
2012,08,03,03,21,14.60
2012,08,03,03,22,14.50
2012,08,03,03,23,14.50
2012,08,03,03,24,14.50
2012,08,03,03,25,14.40
2012,08,03,03,26,14.40
2012,08,03,03,27,14.40
2012,08,03,03,28,14.30
2012,08,03,03,29,14.30
2012,08,03,03,30,14.30
2012,08,03,03,31,14.30
2012,08,03,03,32,14.20
2012,08,03,03,33,14.20
2012,08,03,03,34,14.20
2012,08,03,03,35,14.20
2012,08,03,03,36,14.20
2012,08,03,03,37,14.20
2012,08,03,03,38,14.20
2012,08,03,03,39,14.20
2012,08,03,03,40,14.10
2012,08,03,03,41,14.10
2012,08,03,03,42,14.10
2012,08,03,03,43,14.10
2012,08,03,03,44,14.10
2012,08,03,03,45,14.10
2012,08,03,03,46,14.10
2012,08,03,03,47,14.10
2012,08,03,03,48,14.10
2012,08,03,03,49,14.10
2012,08,03,03,50,14.00
2012,08,03,03,51,14.00
2012,08,03,03,52,14.00
2012,08,03,03,53,14.00
2012,08,03,03,54,13.90
2012,08,03,03,55,13.90
2012,08,03,03,56,13.90
2012,08,03,03,57,13.90
2012,08,03,03,58,13.90
2012,08,03,03,59,13.90
2012,08,03,04,00,14.00
2012,08,03,04,01,14.00
2012,08,03,04,02,14.10
2012,08,03,04,03,14.10
2012,08,03,04,04,14.10
2012,08,03,04,05,14.10
2012,08,03,04,06,14.10
2012,08,03,04,07,14.10
2012,08,03,04,08,14.10
2012,08,03,04,09,14.20
2012,08,03,04,10,14.10
2012,08,03,04,11,14.10
2012,08,03,04,12,14.10
2012,08,03,04,13,14.20
2012,08,03,04,14,14.20
2012,08,03,04,15,14.20
2012,08,03,04,16,14.20
2012,08,03,04,17,14.20
2012,08,03,04,18,14.20
2012,08,03,04,19,14.20
2012,08,03,04,20,14.30
2012,08,03,04,21,14.30
2012,08,03,04,22,14.30
2012,08,03,04,23,14.30
2012,08,03,04,24,14.30
2012,08,03,04,25,14.30
2012,08,03,04,26,14.30
2012,08,03,04,27,14.40
2012,08,03,04,28,14.40
2012,08,03,04,29,14.40
2012,08,03,04,30,14.30
2012,08,03,04,31,14.30
2012,08,03,04,32,14.30
2012,08,03,04,33,14.30
2012,08,03,04,34,14.20
2012,08,03,04,35,14.20
2012,08,03,04,36,14.10
2012,08,03,04,37,14.10
2012,08,03,04,38,14.10
2012,08,03,04,39,14.10
2012,08,03,04,40,14.10
2012,08,03,04,41,14.10
2012,08,03,04,42,14.10
2012,08,03,04,43,14.20
2012,08,03,04,44,14.20
2012,08,03,04,45,14.20
2012,08,03,04,46,14.20
2012,08,03,04,47,14.20
2012,08,03,04,48,14.20
2012,08,03,04,49,14.20
2012,08,03,04,50,14.20
2012,08,03,04,51,14.20
2012,08,03,04,52,14.20
2012,08,03,04,53,14.20
2012,08,03,04,54,14.20
2012,08,03,04,55,14.20
2012,08,03,04,56,14.20
2012,08,03,04,57,14.20
2012,08,03,04,58,14.10
2012,08,03,04,59,14.10
2012,08,03,05,00,14.10
2012,08,03,05,01,14.10
2012,08,03,05,02,14.10
2012,08,03,05,03,14.10
2012,08,03,05,04,14.10
2012,08,03,05,05,14.10
2012,08,03,05,06,14.00
2012,08,03,05,07,14.00
2012,08,03,05,08,13.90
2012,08,03,05,09,13.90
2012,08,03,05,10,13.80
2012,08,03,05,11,13.70
2012,08,03,05,12,13.70
2012,08,03,05,13,13.60
2012,08,03,05,14,13.50
2012,08,03,05,15,13.40
2012,08,03,05,16,13.40
2012,08,03,05,17,13.40
2012,08,03,05,18,13.50
2012,08,03,05,19,13.50
2012,08,03,05,20,13.60
2012,08,03,05,21,13.70
2012,08,03,05,22,13.70
2012,08,03,05,23,13.80
2012,08,03,05,24,13.80
2012,08,03,05,25,13.90
2012,08,03,05,26,13.90
2012,08,03,05,27,14.00
2012,08,03,05,28,14.10
2012,08,03,05,29,14.10
2012,08,03,05,30,14.10
2012,08,03,05,31,14.10
2012,08,03,05,32,14.10
2012,08,03,05,33,14.10
2012,08,03,05,34,14.10
2012,08,03,05,35,14.10
2012,08,03,05,36,14.00
2012,08,03,05,37,14.00
2012,08,03,05,38,14.00
2012,08,03,05,39,13.90
2012,08,03,05,40,13.90
2012,08,03,05,41,13.90
2012,08,03,05,42,13.90
2012,08,03,05,43,13.90
2012,08,03,05,44,13.90
2012,08,03,05,45,13.90
2012,08,03,05,46,14.00
2012,08,03,05,47,14.00
2012,08,03,05,48,14.00
2012,08,03,05,49,14.00
2012,08,03,05,50,14.00
2012,08,03,05,51,14.10
2012,08,03,05,52,14.10
2012,08,03,05,53,14.20
2012,08,03,05,54,14.20
2012,08,03,05,55,14.20
2012,08,03,05,56,14.20
2012,08,03,05,57,14.20
2012,08,03,05,58,14.20
2012,08,03,05,59,14.20
2012,08,03,06,00,14.20
2012,08,03,06,01,14.30
2012,08,03,06,02,14.30
2012,08,03,06,03,14.30
2012,08,03,06,04,14.30
2012,08,03,06,05,14.30
2012,08,03,06,06,14.30
2012,08,03,06,07,14.30
2012,08,03,06,08,14.30
2012,08,03,06,09,14.30
2012,08,03,06,10,14.30
2012,08,03,06,11,14.20
2012,08,03,06,12,14.20
2012,08,03,06,13,14.20
2012,08,03,06,14,14.10
2012,08,03,06,15,14.10
2012,08,03,06,16,14.10
2012,08,03,06,17,14.00
2012,08,03,06,18,14.00
2012,08,03,06,19,14.00
2012,08,03,06,20,14.00
2012,08,03,06,21,14.10
2012,08,03,06,22,14.10
2012,08,03,06,23,14.10
2012,08,03,06,24,14.10
2012,08,03,06,25,14.20
2012,08,03,06,26,14.30
2012,08,03,06,27,14.30
2012,08,03,06,28,14.40
2012,08,03,06,29,14.50
2012,08,03,06,30,14.60
2012,08,03,06,31,14.70
2012,08,03,06,32,14.70
2012,08,03,06,33,14.80
2012,08,03,06,34,14.80
2012,08,03,06,35,14.90
2012,08,03,06,36,14.90
2012,08,03,06,37,14.90
2012,08,03,06,38,14.90
2012,08,03,06,39,14.90
2012,08,03,06,40,14.90
2012,08,03,06,41,14.90
2012,08,03,06,42,15.00
2012,08,03,06,43,15.00
2012,08,03,06,44,15.00
2012,08,03,06,45,15.00
2012,08,03,06,46,15.00
2012,08,03,06,47,15.00
2012,08,03,06,48,15.00
2012,08,03,06,49,15.00
2012,08,03,06,50,15.00
2012,08,03,06,51,15.00
2012,08,03,06,52,15.00
2012,08,03,06,53,15.00
2012,08,03,06,54,15.00
2012,08,03,06,55,15.00
2012,08,03,06,56,15.00
2012,08,03,06,57,15.00
2012,08,03,06,58,15.00
2012,08,03,06,59,15.10
2012,08,03,07,00,15.10
2012,08,03,07,01,15.20
2012,08,03,07,02,15.20
2012,08,03,07,03,15.30
2012,08,03,07,04,15.30
2012,08,03,07,05,15.30
2012,08,03,07,06,15.40
2012,08,03,07,07,15.40
2012,08,03,07,08,15.40
2012,08,03,07,09,15.50
2012,08,03,07,10,15.50
2012,08,03,07,11,15.60
2012,08,03,07,12,15.60
2012,08,03,07,13,15.60
2012,08,03,07,14,15.60
2012,08,03,07,15,15.70
2012,08,03,07,16,15.70
2012,08,03,07,17,15.70
2012,08,03,07,18,15.80
2012,08,03,07,19,15.80
2012,08,03,07,20,15.80
2012,08,03,07,21,15.80
2012,08,03,07,22,15.80
2012,08,03,07,23,15.80
2012,08,03,07,24,15.80
2012,08,03,07,25,15.90
2012,08,03,07,26,15.90
2012,08,03,07,27,15.90
2012,08,03,07,28,15.90
2012,08,03,07,29,15.90
2012,08,03,07,30,15.90
2012,08,03,07,31,16.00
2012,08,03,07,32,16.00
2012,08,03,07,33,16.00
2012,08,03,07,34,16.00
2012,08,03,07,35,16.10
2012,08,03,07,36,16.10
2012,08,03,07,37,16.10
2012,08,03,07,38,16.10
2012,08,03,07,39,16.20
2012,08,03,07,40,16.20
2012,08,03,07,41,16.20
2012,08,03,07,42,16.20
2012,08,03,07,43,16.20
2012,08,03,07,44,16.30
2012,08,03,07,45,16.30
2012,08,03,07,46,16.30
2012,08,03,07,47,16.30
2012,08,03,07,48,16.40
2012,08,03,07,49,16.40
2012,08,03,07,50,16.50
2012,08,03,07,51,16.50
2012,08,03,07,52,16.60
2012,08,03,07,53,16.60
2012,08,03,07,54,16.60
2012,08,03,07,55,16.60
2012,08,03,07,56,16.70
2012,08,03,07,57,16.70
2012,08,03,07,58,16.70
2012,08,03,07,59,16.70
2012,08,03,08,00,16.80
2012,08,03,08,01,16.80
2012,08,03,08,02,16.80
2012,08,03,08,03,16.90
2012,08,03,08,04,16.90
2012,08,03,08,05,16.90
2012,08,03,08,06,17.00
2012,08,03,08,07,17.00
2012,08,03,08,08,17.00
2012,08,03,08,09,17.00
2012,08,03,08,10,17.10
2012,08,03,08,11,17.10
2012,08,03,08,12,17.10
2012,08,03,08,13,17.10
2012,08,03,08,14,17.10
2012,08,03,08,15,17.20
2012,08,03,08,16,17.20
2012,08,03,08,17,17.20
2012,08,03,08,18,17.30
2012,08,03,08,19,17.30
2012,08,03,08,20,17.30
2012,08,03,08,21,17.30
2012,08,03,08,22,17.30
2012,08,03,08,23,17.30
2012,08,03,08,24,17.30
2012,08,03,08,25,17.30
2012,08,03,08,26,17.40
2012,08,03,08,27,17.40
2012,08,03,08,28,17.50
2012,08,03,08,29,17.60
2012,08,03,08,30,17.60
2012,08,03,08,31,17.60
2012,08,03,08,32,17.70
2012,08,03,08,33,17.70
2012,08,03,08,34,17.80
2012,08,03,08,35,17.80
2012,08,03,08,36,17.90
2012,08,03,08,37,18.00
2012,08,03,08,38,18.10
2012,08,03,08,39,18.20
2012,08,03,08,40,18.20
2012,08,03,08,41,18.30
2012,08,03,08,42,18.30
2012,08,03,08,43,18.30
2012,08,03,08,44,18.30
2012,08,03,08,45,18.30
2012,08,03,08,46,18.40
2012,08,03,08,47,18.50
2012,08,03,08,48,18.50
2012,08,03,08,49,18.60
2012,08,03,08,50,18.60
2012,08,03,08,51,18.70
2012,08,03,08,52,18.70
2012,08,03,08,53,18.80
2012,08,03,08,54,18.80
2012,08,03,08,55,18.90
2012,08,03,08,56,19.00
2012,08,03,08,57,19.00
2012,08,03,08,58,19.10
2012,08,03,08,59,19.20
2012,08,03,09,00,19.20
2012,08,03,09,01,19.30
2012,08,03,09,02,19.30
2012,08,03,09,03,19.30
2012,08,03,09,04,19.30
2012,08,03,09,05,19.40
2012,08,03,09,06,19.40
2012,08,03,09,07,19.50
2012,08,03,09,08,19.60
2012,08,03,09,09,19.60
2012,08,03,09,10,19.70
2012,08,03,09,11,19.70
2012,08,03,09,12,19.80
2012,08,03,09,13,19.80
2012,08,03,09,14,19.90
2012,08,03,09,15,19.90
2012,08,03,09,16,19.90
2012,08,03,09,17,20.00
2012,08,03,09,18,20.10
2012,08,03,09,19,20.10
2012,08,03,09,20,20.10
2012,08,03,09,21,20.00
2012,08,03,09,22,20.00
2012,08,03,09,23,20.00
2012,08,03,09,24,20.00
2012,08,03,09,25,20.00
2012,08,03,09,26,20.10
2012,08,03,09,27,20.10
2012,08,03,09,28,20.20
2012,08,03,09,29,20.20
2012,08,03,09,30,20.20
2012,08,03,09,31,20.30
2012,08,03,09,32,20.30
2012,08,03,09,33,20.30
2012,08,03,09,34,20.30
2012,08,03,09,35,20.40
2012,08,03,09,36,20.50
2012,08,03,09,37,20.50
2012,08,03,09,38,20.60
2012,08,03,09,39,20.70
2012,08,03,09,40,20.80
2012,08,03,09,41,20.80
2012,08,03,09,42,20.80
2012,08,03,09,43,20.90
2012,08,03,09,44,21.00
2012,08,03,09,45,21.00
2012,08,03,09,46,21.10
2012,08,03,09,47,21.10
2012,08,03,09,48,21.10
2012,08,03,09,49,21.20
2012,08,03,09,50,21.20
2012,08,03,09,51,21.30
2012,08,03,09,52,21.30
2012,08,03,09,53,21.40
2012,08,03,09,54,21.50
2012,08,03,09,55,21.60
2012,08,03,09,56,21.60
2012,08,03,09,57,21.60
2012,08,03,09,58,21.50
2012,08,03,09,59,21.50
2012,08,03,10,00,21.50
2012,08,03,10,01,21.50
2012,08,03,10,02,21.50
2012,08,03,10,03,21.50
2012,08,03,10,04,21.60
2012,08,03,10,05,21.60
2012,08,03,10,06,21.60
2012,08,03,10,07,21.60
2012,08,03,10,08,21.50
2012,08,03,10,09,21.50
2012,08,03,10,10,21.50
2012,08,03,10,11,21.40
2012,08,03,10,12,21.40
2012,08,03,10,13,21.40
2012,08,03,10,14,21.40
2012,08,03,10,15,21.40
2012,08,03,10,16,21.40
2012,08,03,10,17,21.40
2012,08,03,10,18,21.40
2012,08,03,10,19,21.40
2012,08,03,10,20,21.50
2012,08,03,10,21,21.50
2012,08,03,10,22,21.50
2012,08,03,10,23,21.60
2012,08,03,10,24,21.60
2012,08,03,10,25,21.60
2012,08,03,10,26,21.70
2012,08,03,10,27,21.80
2012,08,03,10,28,21.80
2012,08,03,10,29,22.00
2012,08,03,10,30,22.00
2012,08,03,10,31,22.10
2012,08,03,10,32,22.10
2012,08,03,10,33,22.10
2012,08,03,10,34,22.20
2012,08,03,10,35,22.20
2012,08,03,10,36,22.30
2012,08,03,10,37,22.30
2012,08,03,10,38,22.40
2012,08,03,10,39,22.30
2012,08,03,10,40,22.30
2012,08,03,10,41,22.40
2012,08,03,10,42,22.50
2012,08,03,10,43,22.50
2012,08,03,10,44,22.60
2012,08,03,10,45,22.70
2012,08,03,10,46,22.70
2012,08,03,10,47,22.80
2012,08,03,10,48,22.80
2012,08,03,10,49,22.90
2012,08,03,10,50,22.90
2012,08,03,10,51,22.90
2012,08,03,10,52,22.90
2012,08,03,10,53,23.00
2012,08,03,10,54,23.00
2012,08,03,10,55,22.90
2012,08,03,10,56,22.90
2012,08,03,10,57,22.80
2012,08,03,10,58,22.70
2012,08,03,10,59,22.70
2012,08,03,11,00,22.70
2012,08,03,11,01,22.70
2012,08,03,11,02,22.80
2012,08,03,11,03,22.90
2012,08,03,11,04,23.10
2012,08,03,11,05,23.20
2012,08,03,11,06,23.40
2012,08,03,11,07,23.50
2012,08,03,11,08,23.60
2012,08,03,11,09,23.80
2012,08,03,11,10,24.00
2012,08,03,11,11,24.20
2012,08,03,11,12,24.30
2012,08,03,11,13,24.30
2012,08,03,11,14,24.20
2012,08,03,11,15,24.00
2012,08,03,11,16,23.70
2012,08,03,11,17,23.40
2012,08,03,11,18,23.20
2012,08,03,11,19,23.00
2012,08,03,11,20,22.90
2012,08,03,11,21,22.70
2012,08,03,11,22,22.70
2012,08,03,11,23,22.70
2012,08,03,11,24,22.70
2012,08,03,11,25,22.70
2012,08,03,11,26,22.70
2012,08,03,11,27,22.70
2012,08,03,11,28,22.80
2012,08,03,11,29,22.90
2012,08,03,11,30,23.00
2012,08,03,11,31,23.00
2012,08,03,11,32,23.10
2012,08,03,11,33,23.10
2012,08,03,11,34,23.20
2012,08,03,11,35,23.20
2012,08,03,11,36,23.20
2012,08,03,11,37,23.20
2012,08,03,11,38,23.30
2012,08,03,11,39,23.30
2012,08,03,11,40,23.30
2012,08,03,11,41,23.30
2012,08,03,11,42,23.30
2012,08,03,11,43,23.30
2012,08,03,11,44,23.30
2012,08,03,11,45,23.20
2012,08,03,11,46,23.20
2012,08,03,11,47,23.20
2012,08,03,11,48,23.20
2012,08,03,11,49,23.40
2012,08,03,11,50,23.40
2012,08,03,11,51,23.50
2012,08,03,11,52,23.50
2012,08,03,11,53,23.50
2012,08,03,11,54,23.40
2012,08,03,11,55,23.30
2012,08,03,11,56,23.40
2012,08,03,11,57,23.50
2012,08,03,11,58,23.40
2012,08,03,11,59,23.50
2012,08,03,12,00,23.50
2012,08,03,12,01,23.50
2012,08,03,12,02,23.60
2012,08,03,12,03,23.70
2012,08,03,12,04,23.70
2012,08,03,12,05,23.70
2012,08,03,12,06,23.60
2012,08,03,12,07,23.50
2012,08,03,12,08,23.40
2012,08,03,12,09,23.30
2012,08,03,12,10,23.30
2012,08,03,12,11,23.40
2012,08,03,12,12,23.40
2012,08,03,12,13,23.40
2012,08,03,12,14,23.20
2012,08,03,12,15,23.00
2012,08,03,12,16,23.10
2012,08,03,12,17,23.10
2012,08,03,12,18,23.20
2012,08,03,12,19,23.30
2012,08,03,12,20,23.30
2012,08,03,12,21,23.30
2012,08,03,12,22,23.30
2012,08,03,12,23,23.40
2012,08,03,12,24,23.50
2012,08,03,12,25,23.60
2012,08,03,12,26,23.80
2012,08,03,12,27,23.90
2012,08,03,12,28,23.90
2012,08,03,12,29,23.90
2012,08,03,12,30,23.90
2012,08,03,12,31,23.80
2012,08,03,12,32,23.80
2012,08,03,12,33,23.80
2012,08,03,12,34,23.90
2012,08,03,12,35,23.90
2012,08,03,12,36,24.00
2012,08,03,12,37,24.20
2012,08,03,12,38,24.30
2012,08,03,12,39,24.30
2012,08,03,12,40,24.20
2012,08,03,12,41,24.20
2012,08,03,12,42,24.10
2012,08,03,12,43,24.20
2012,08,03,12,44,24.20
2012,08,03,12,45,24.30
2012,08,03,12,46,24.40
2012,08,03,12,47,24.60
2012,08,03,12,48,24.50
2012,08,03,12,49,24.60
2012,08,03,12,50,24.70
2012,08,03,12,51,24.80
2012,08,03,12,52,24.90
2012,08,03,12,53,24.90
2012,08,03,12,54,25.00
2012,08,03,12,55,25.00
2012,08,03,12,56,25.10
2012,08,03,12,57,25.10
2012,08,03,12,58,25.10
2012,08,03,12,59,25.10
2012,08,03,13,00,25.10
2012,08,03,13,01,25.00
2012,08,03,13,02,25.10
2012,08,03,13,03,25.30
2012,08,03,13,04,25.20
2012,08,03,13,05,25.00
2012,08,03,13,06,24.80
2012,08,03,13,07,24.60
2012,08,03,13,08,24.50
2012,08,03,13,09,24.60
2012,08,03,13,10,24.70
2012,08,03,13,11,24.80
2012,08,03,13,12,24.80
2012,08,03,13,13,24.80
2012,08,03,13,14,24.80
2012,08,03,13,15,24.90
2012,08,03,13,16,24.90
2012,08,03,13,17,25.00
2012,08,03,13,18,25.00
2012,08,03,13,19,25.00
2012,08,03,13,20,24.90
2012,08,03,13,21,24.90
2012,08,03,13,22,24.90
2012,08,03,13,23,24.90
2012,08,03,13,24,24.80
2012,08,03,13,25,24.80
2012,08,03,13,26,24.80
2012,08,03,13,27,24.70
2012,08,03,13,28,24.70
2012,08,03,13,29,24.60
2012,08,03,13,30,24.60
2012,08,03,13,31,24.70
2012,08,03,13,32,24.80
2012,08,03,13,33,24.90
2012,08,03,13,34,25.00
2012,08,03,13,35,24.90
2012,08,03,13,36,24.80
2012,08,03,13,37,24.70
2012,08,03,13,38,24.60
2012,08,03,13,39,24.70
2012,08,03,13,40,24.80
2012,08,03,13,41,25.00
2012,08,03,13,42,25.10
2012,08,03,13,43,25.20
2012,08,03,13,44,25.20
2012,08,03,13,45,25.20
2012,08,03,13,46,25.30
2012,08,03,13,47,25.30
2012,08,03,13,48,25.30
2012,08,03,13,49,25.20
2012,08,03,13,50,25.10
2012,08,03,13,51,25.00
2012,08,03,13,52,24.90
2012,08,03,13,53,24.90
2012,08,03,13,54,24.90
2012,08,03,13,55,24.80
2012,08,03,13,56,24.80
2012,08,03,13,57,24.70
2012,08,03,13,58,24.80
2012,08,03,13,59,24.80
2012,08,03,14,00,24.90
2012,08,03,14,01,24.90
2012,08,03,14,02,25.00
2012,08,03,14,03,24.90
2012,08,03,14,04,24.90
2012,08,03,14,05,25.00
2012,08,03,14,06,25.10
2012,08,03,14,07,25.10
2012,08,03,14,08,25.10
2012,08,03,14,09,25.30
2012,08,03,14,10,25.20
2012,08,03,14,11,25.10
2012,08,03,14,12,25.00
2012,08,03,14,13,24.90
2012,08,03,14,14,24.80
2012,08,03,14,15,24.90
2012,08,03,14,16,24.90
2012,08,03,14,17,24.90
2012,08,03,14,18,24.90
2012,08,03,14,19,24.80
2012,08,03,14,20,24.80
2012,08,03,14,21,24.70
2012,08,03,14,22,24.70
2012,08,03,14,23,24.80
2012,08,03,14,24,24.80
2012,08,03,14,25,24.80
2012,08,03,14,26,24.90
2012,08,03,14,27,24.90
2012,08,03,14,28,24.80
2012,08,03,14,29,24.90
2012,08,03,14,30,25.00
2012,08,03,14,31,25.00
2012,08,03,14,32,25.00
2012,08,03,14,33,25.00
2012,08,03,14,34,25.10
2012,08,03,14,35,25.10
2012,08,03,14,36,25.10
2012,08,03,14,37,25.10
2012,08,03,14,38,25.10
2012,08,03,14,39,25.10
2012,08,03,14,40,25.10
2012,08,03,14,41,25.10
2012,08,03,14,42,25.10
2012,08,03,14,43,25.10
2012,08,03,14,44,25.10
2012,08,03,14,45,25.10
2012,08,03,14,46,25.10
2012,08,03,14,47,25.10
2012,08,03,14,48,25.10
2012,08,03,14,49,25.10
2012,08,03,14,50,25.10
2012,08,03,14,51,25.10
2012,08,03,14,52,25.00
2012,08,03,14,53,24.90
2012,08,03,14,54,24.90
2012,08,03,14,55,25.00
2012,08,03,14,56,25.10
2012,08,03,14,57,25.10
2012,08,03,14,58,25.10
2012,08,03,14,59,25.20
2012,08,03,15,00,25.20
2012,08,03,15,01,25.20
2012,08,03,15,02,25.20
2012,08,03,15,03,25.20
2012,08,03,15,04,25.30
2012,08,03,15,05,25.30
2012,08,03,15,06,25.30
2012,08,03,15,07,25.30
2012,08,03,15,08,25.30
2012,08,03,15,09,25.30
2012,08,03,15,10,25.40
2012,08,03,15,11,25.40
2012,08,03,15,12,25.40
2012,08,03,15,13,25.30
2012,08,03,15,14,25.20
2012,08,03,15,15,25.20
2012,08,03,15,16,25.10
2012,08,03,15,17,25.10
2012,08,03,15,18,25.10
2012,08,03,15,19,25.00
2012,08,03,15,20,25.10
2012,08,03,15,21,25.20
2012,08,03,15,22,25.30
2012,08,03,15,23,25.40
2012,08,03,15,24,25.50
2012,08,03,15,25,25.60
2012,08,03,15,26,25.60
2012,08,03,15,27,25.60
2012,08,03,15,28,25.60
2012,08,03,15,29,25.60
2012,08,03,15,30,25.70
2012,08,03,15,31,25.80
2012,08,03,15,32,25.70
2012,08,03,15,33,25.60
2012,08,03,15,34,25.50
2012,08,03,15,35,25.40
2012,08,03,15,36,25.40
2012,08,03,15,37,25.30
2012,08,03,15,38,25.40
2012,08,03,15,39,25.40
2012,08,03,15,40,25.50
2012,08,03,15,41,25.50
2012,08,03,15,42,25.50
2012,08,03,15,43,25.40
2012,08,03,15,44,25.50
2012,08,03,15,45,25.60
2012,08,03,15,46,25.60
2012,08,03,15,47,25.60
2012,08,03,15,48,25.70
2012,08,03,15,49,25.70
2012,08,03,15,50,25.80
2012,08,03,15,51,25.70
2012,08,03,15,52,25.60
2012,08,03,15,53,25.40
2012,08,03,15,54,25.30
2012,08,03,15,55,25.30
2012,08,03,15,56,25.40
2012,08,03,15,57,25.50
2012,08,03,15,58,25.60
2012,08,03,15,59,25.50
2012,08,03,16,00,25.50
2012,08,03,16,01,25.50
2012,08,03,16,02,25.40
2012,08,03,16,03,25.40
2012,08,03,16,04,25.40
2012,08,03,16,05,25.30
2012,08,03,16,06,25.20
2012,08,03,16,07,25.10
2012,08,03,16,08,25.20
2012,08,03,16,09,25.20
2012,08,03,16,10,25.20
2012,08,03,16,11,25.30
2012,08,03,16,12,25.30
2012,08,03,16,13,25.40
2012,08,03,16,14,25.40
2012,08,03,16,15,25.40
2012,08,03,16,16,25.40
2012,08,03,16,17,25.50
2012,08,03,16,18,25.60
2012,08,03,16,19,25.80
2012,08,03,16,20,25.90
2012,08,03,16,21,25.90
2012,08,03,16,22,25.90
2012,08,03,16,23,26.00
2012,08,03,16,24,26.10
2012,08,03,16,25,26.10
2012,08,03,16,26,26.10
2012,08,03,16,27,26.00
2012,08,03,16,28,26.10
2012,08,03,16,29,26.00
2012,08,03,16,30,26.00
2012,08,03,16,31,26.00
2012,08,03,16,32,26.00
2012,08,03,16,33,26.00
2012,08,03,16,34,25.90
2012,08,03,16,35,25.90
2012,08,03,16,36,25.90
2012,08,03,16,37,26.00
2012,08,03,16,38,26.10
2012,08,03,16,39,26.10
2012,08,03,16,40,26.10
2012,08,03,16,41,26.20
2012,08,03,16,42,26.20
2012,08,03,16,43,26.20
2012,08,03,16,44,26.00
2012,08,03,16,45,25.90
2012,08,03,16,46,25.90
2012,08,03,16,47,25.80
2012,08,03,16,48,25.80
2012,08,03,16,49,25.70
2012,08,03,16,50,25.70
2012,08,03,16,51,25.80
2012,08,03,16,52,25.80
2012,08,03,16,53,25.80
2012,08,03,16,54,25.80
2012,08,03,16,55,25.80
2012,08,03,16,56,25.90
2012,08,03,16,57,25.80
2012,08,03,16,58,25.80
2012,08,03,16,59,25.80
2012,08,03,17,00,25.80
2012,08,03,17,01,25.80
2012,08,03,17,02,25.80
2012,08,03,17,03,25.80
2012,08,03,17,04,25.80
2012,08,03,17,05,25.90
2012,08,03,17,06,25.90
2012,08,03,17,07,25.90
2012,08,03,17,08,25.90
2012,08,03,17,09,25.90
2012,08,03,17,10,25.90
2012,08,03,17,11,26.00
2012,08,03,17,12,26.10
2012,08,03,17,13,26.20
2012,08,03,17,14,26.30
2012,08,03,17,15,26.40
2012,08,03,17,16,26.50
2012,08,03,17,17,26.60
2012,08,03,17,18,26.70
2012,08,03,17,19,26.80